This is the latest recevied weather packets stored in our database for station/object KC3QLX. If no packets are shown the sender has not sent any weather packets the latest 10 day(s).
| Time | Temp. | Humidity | Pressure | Rain* | Wind** | Luminosity | Snow |
|---|---|---|---|---|---|---|---|
| 1778111321 | 16.11° C | 99% | 1007.7 hPa | 0 mm | - | 2 W/m² | - |
| 1778111019 | 16.11° C | 99% | 1007.6 hPa | 0 mm | - | 0 W/m² | - |
| 1778110716 | 16.11° C | 99% | 1007.5 hPa | 0 mm | - | 0 W/m² | - |
| 1778110412 | 16.11° C | 99% | 1007.6 hPa | 0 mm | - | 0 W/m² | - |
| 1778110109 | 16.11° C | 99% | 1007.5 hPa | 0 mm | - | 1 W/m² | - |
| 1778109805 | 16.11° C | 99% | 1007.5 hPa | 0 mm | - | 2 W/m² | - |
| 1778109501 | 16.11° C | 99% | 1007.6 hPa | 0 mm | - | 6 W/m² | - |
| 1778109199 | 16.11° C | 99% | 1007.3 hPa | 0 mm | - | 7 W/m² | - |
| 1778108896 | 16.11° C | 99% | 1007.1 hPa | 0 mm | - | 12 W/m² | - |
| 1778108593 | 16.67° C | 99% | 1007.2 hPa | 0 mm | - | 11 W/m² | - |
| 1778108289 | 16.67° C | 99% | 1007 hPa | 0 mm | - | 12 W/m² | - |
| 1778107987 | 16.67° C | 99% | 1007.1 hPa | 0 mm | - | 13 W/m² | - |
| 1778107683 | 16.67° C | 99% | 1007.2 hPa | 0 mm | - | 11 W/m² | - |
| 1778107381 | 16.67° C | 99% | 1007.1 hPa | 0 mm | - | 10 W/m² | - |
| 1778107077 | 16.67° C | 99% | 1006.9 hPa | 0 mm | - | 10 W/m² | - |
| 1778106772 | 16.67° C | 99% | 1006.9 hPa | 0 mm | - | 7 W/m² | - |
| 1778106469 | 16.67° C | 99% | 1007 hPa | 0 mm | - | 20 W/m² | - |
| 1778106164 | 16.67° C | 99% | 1007.1 hPa | 1.27 mm | - | 20 W/m² | - |
| 1778105857 | 16.67° C | 98% | 1007.1 hPa | 3.05 mm | - | 6 W/m² | - |
| 1778105555 | 16.67° C | 98% | 1007 hPa | 3.05 mm | - | 9 W/m² | - |
| 1778105252 | 16.67° C | 97% | 1006.8 hPa | 3.05 mm | - | 29 W/m² | - |
| 1778104947 | 17.22° C | 97% | 1006.8 hPa | 1.78 mm | - | 18 W/m² | - |
| 1778104644 | 17.22° C | 96% | 1006.7 hPa | 0 mm | - | 17 W/m² | - |
| 1778104339 | 17.22° C | 96% | 1006.6 hPa | 0 mm | - | 19 W/m² | - |
| 1778104036 | 17.22° C | 96% | 1006.6 hPa | 0 mm | - | 19 W/m² | - |
* Rain latest hour (hover to see other rain measurements)
** Current wind speed in m/s (hover to see current wind gust speed)